When you browse on this site, cookies collect data to enhance your experience and personalize the content and advertising you see.
Visit our Privacy Policy to learn more. By continuing to use the site, you agree to this use of cookies and data.
  • In Austria
  • List of Countries
  • For 7 days
  • Water Temperature
  • Satellite Maps
  • Weather Map
  • News
  • Weather Widgets
  • user-avatar
    Login

    Hourly Weather Graz

    Today, 20 March, Wednesday

    Time Temperature Precipitation Wind Pressure Humidity
    00:00 +2°C° 0 mm 1 mps 733 mmHg 78%
    01:00 +2°C° 0 mm 1 mps 733 mmHg 80%
    02:00 +2°C° 0 mm 1 mps 733 mmHg 80%
    03:00 +2°C° 0 mm 1 mps 733 mmHg 80%
    04:00 +1°C° 0 mm 1 mps 733 mmHg 80%
    05:00 +2°C° 0 mm 1 mps 734 mmHg 77%
    06:00 +2°C° 0 mm 1 mps 734 mmHg 75%
    07:00 +3°C° 0 mm 1 mps 734 mmHg 69%
    08:00 +4°C° 0 mm 1 mps 735 mmHg 59%
    09:00 +5°C° 0 mm 2 mps 735 mmHg 50%
    10:00 +7°C° 0 mm 2 mps 735 mmHg 40%
    11:00 +8°C° 0 mm 2 mps 735 mmHg 38%
    12:00 +9°C° 0 mm 2 mps 735 mmHg 36%
    13:00 +9°C° 0 mm 2 mps 735 mmHg 34%
    14:00 +9°C° 0 mm 2 mps 735 mmHg 36%
    15:00 +9°C° 0 mm 2 mps 735 mmHg 38%
    16:00 +9°C° 0 mm 2 mps 735 mmHg 40%
    17:00 +7°C° 0 mm 2 mps 735 mmHg 48%
    18:00 +6°C° 0 mm 1 mps 735 mmHg 57%
    19:00 +3°C° 0 mm 0 mps 735 mmHg 65%
    20:00 +4°C° 0 mm 1 mps 736 mmHg 67%
    21:00 +3°C° 0 mm 1 mps 736 mmHg 70%
    22:00 +3°C° 0 mm 1 mps 737 mmHg 72%
    23:00 +3°C° 0 mm 1 mps 737 mmHg 73%

    Tomorrow, 21 March, Thursday

    Time Temperature Precipitation Wind Pressure Humidity
    00:00 +2°C° 0 mm 1 mps 737 mmHg 74%
    01:00 +2°C° 0 mm 1 mps 737 mmHg 75%
    02:00 +2°C° 0 mm 1 mps 737 mmHg 74%
    03:00 +2°C° 0 mm 1 mps 737 mmHg 74%
    04:00 +2°C° 0 mm 1 mps 736 mmHg 74%
    05:00 +2°C° 0 mm 1 mps 737 mmHg 71%
    06:00 +2°C° 0 mm 1 mps 737 mmHg 68%
    07:00 +3°C° 0 mm 1 mps 737 mmHg 65%
    08:00 +5°C° 0 mm 1 mps 737 mmHg 56%
    09:00 +8°C° 0 mm 1 mps 737 mmHg 47%
    10:00 +11°C° 0 mm 1 mps 737 mmHg 38%
    11:00 +12°C° 0 mm 1 mps 737 mmHg 36%
    12:00 +12°C° 0 mm 1 mps 736 mmHg 33%
    13:00 +13°C° 0 mm 1 mps 736 mmHg 31%
    14:00 +13°C° 0 mm 1 mps 736 mmHg 33%
    15:00 +13°C° 0 mm 1 mps 735 mmHg 34%
    16:00 +13°C° 0 mm 1 mps 735 mmHg 35%
    17:00 +10°C° 0 mm 1 mps 735 mmHg 43%
    18:00 +7°C° 0 mm 0 mps 735 mmHg 51%
    19:00 +5°C° 0 mm 0 mps 735 mmHg 58%
    20:00 +5°C° 0 mm 0 mps 735 mmHg 59%
    21:00 +4°C° 0 mm 0 mps 735 mmHg 60%
    22:00 +5°C° 0 mm 1 mps 735 mmHg 62%
    23:00 +4°C° 0 mm 1 mps 735 mmHg 62%

    Day after tomorrow, 22 March, Friday

    Time Temperature Precipitation Wind Pressure Humidity
    00:00 +4°C° 0 mm 1 mps 735 mmHg 62%
    01:00 +4°C° 0 mm 1 mps 735 mmHg 62%
    02:00 +4°C° 0 mm 1 mps 735 mmHg 61%
    03:00 +4°C° 0 mm 1 mps 735 mmHg 60%
    04:00 +4°C° 0 mm 1 mps 735 mmHg 59%
    05:00 +4°C° 0 mm 1 mps 735 mmHg 57%
    06:00 +5°C° 0 mm 1 mps 735 mmHg 55%
    07:00 +5°C° 0 mm 1 mps 735 mmHg 53%
    08:00 +8°C° 0 mm 1 mps 735 mmHg 46%
    09:00 +11°C° 0 mm 1 mps 735 mmHg 39%
    10:00 +14°C° 0 mm 1 mps 735 mmHg 32%
    11:00 +15°C° 0 mm 1 mps 735 mmHg 31%
    12:00 +15°C° 0 mm 1 mps 734 mmHg 29%
    13:00 +16°C° 0 mm 1 mps 734 mmHg 28%
    14:00 +16°C° 0 mm 1 mps 734 mmHg 30%
    15:00 +16°C° 0 mm 1 mps 733 mmHg 31%
    16:00 +16°C° 0 mm 1 mps 733 mmHg 32%
    17:00 +13°C° 0 mm 1 mps 733 mmHg 40%
    18:00 +11°C° 0 mm 1 mps 733 mmHg 47%
    19:00 +8°C° 0 mm 0 mps 733 mmHg 55%
    20:00 +7°C° 0 mm 0 mps 733 mmHg 56%
    21:00 +7°C° 0 mm 0 mps 733 mmHg 57%
    22:00 +7°C° 0 mm 1 mps 733 mmHg 58%
    23:00 +7°C° 0 mm 1 mps 733 mmHg 59%

    23 March, Saturday

    Time Temperature Precipitation Wind Pressure Humidity
    00:00 +7°C° 0 mm 1 mps 733 mmHg 60%
    01:00 +6°C° 0 mm 1 mps 733 mmHg 60%
    02:00 +6°C° 0 mm 1 mps 733 mmHg 60%
    03:00 +6°C° 0 mm 1 mps 733 mmHg 60%
    04:00 +6°C° 0 mm 1 mps 733 mmHg 59%
    05:00 +6°C° 0 mm 1 mps 733 mmHg 58%
    06:00 +7°C° 0 mm 1 mps 733 mmHg 57%
    07:00 +7°C° 0 mm 1 mps 733 mmHg 55%
    08:00 +10°C° 0 mm 1 mps 733 mmHg 48%
    09:00 +12°C° 0 mm 0 mps 733 mmHg 41%
    10:00 +16°C° 0 mm 0 mps 733 mmHg 34%
    11:00 +16°C° 0 mm 0 mps 733 mmHg 33%
    12:00 +19°C° 0 mm 1 mps 733 mmHg 32%
    13:00 +20°C° 0 mm 1 mps 732 mmHg 31%
    14:00 +20°C° 0 mm 1 mps 732 mmHg 33%
    15:00 +19°C° 0 mm 1 mps 732 mmHg 34%
    16:00 +19°C° 0 mm 1 mps 731 mmHg 36%
    17:00 +16°C° 0 mm 1 mps 731 mmHg 44%
    18:00 +13°C° 0 mm 1 mps 731 mmHg 52%
    19:00 +10°C° 0 mm 0 mps 731 mmHg 61%
    20:00 +9°C° 0 mm 0 mps 731 mmHg 63%
    21:00 +9°C° 0 mm 0 mps 731 mmHg 64%
    22:00 +9°C° 0 mm 1 mps 731 mmHg 66%
    23:00 +9°C° 0 mm 1 mps 731 mmHg 68%

    24 March, Sunday

    Time Temperature Precipitation Wind Pressure Humidity
    00:00 +9°C° 0 mm 1 mps 731 mmHg 69%
    01:00 +8°C° 0 mm 1 mps 731 mmHg 70%
    02:00 +8°C° 0 mm 1 mps 731 mmHg 71%
    03:00 +8°C° 0 mm 1 mps 730 mmHg 72%
    04:00 +8°C° 0 mm 1 mps 730 mmHg 73%
    05:00 +8°C° 0 mm 1 mps 730 mmHg 72%
    06:00 +8°C° 0 mm 1 mps 730 mmHg 71%
    07:00 +8°C° 0 mm 1 mps 730 mmHg 70%
    08:00 +11°C° 0 mm 1 mps 730 mmHg 62%
    09:00 +14°C° 0 mm 1 mps 730 mmHg 53%
    10:00 +18°C° 0 mm 1 mps 730 mmHg 44%
    11:00 +19°C° 0 mm 1 mps 729 mmHg 42%
    12:00 +20°C° 0 mm 1 mps 729 mmHg 39%
    13:00 +21°C° 0 mm 1 mps 728 mmHg 36%
    14:00 +21°C° 0 mm 1 mps 728 mmHg 37%
    15:00 +20°C° 0 mm 1 mps 727 mmHg 38%
    16:00 +20°C° 0 mm 1 mps 727 mmHg 39%
    17:00 +18°C° 0 mm 1 mps 727 mmHg 49%
    18:00 +15°C° 0 mm 1 mps 727 mmHg 58%
    19:00 +11°C° 0 mm 0 mps 726 mmHg 67%
    20:00 +12°C° 0 mm 1 mps 727 mmHg 70%
    21:00 +11°C° 0 mm 1 mps 727 mmHg 72%
    22:00 +11°C° 0 mm 1 mps 727 mmHg 75%
    23:00 +10°C° 0 mm 1 mps 727 mmHg 76%

    25 March, Monday

    Time Temperature Precipitation Wind Pressure Humidity
    00:00 +10°C° 0 mm 1 mps 727 mmHg 77%
    01:00 +10°C° 0 mm 1 mps 726 mmHg 79%
    02:00 +9°C° 0 mm 1 mps 726 mmHg 80%
    03:00 +9°C° 0 mm 1 mps 726 mmHg 81%
    04:00 +9°C° 0 mm 1 mps 726 mmHg 82%
    05:00 +9°C° 0 mm 1 mps 726 mmHg 82%
    06:00 +9°C° 0 mm 1 mps 726 mmHg 81%
    07:00 +10°C° 0 mm 1 mps 726 mmHg 81%
    08:00 +12°C° 0 mm 1 mps 726 mmHg 71%
    09:00 +14°C° 0 mm 0 mps 726 mmHg 60%
    10:00 +17°C° 0 mm 0 mps 726 mmHg 50%
    11:00 +17°C° 0.4 mm 0 mps 725 mmHg 51%
    12:00 +19°C° 0.4 mm 1 mps 725 mmHg 53%
    13:00 +18°C° 0.4 mm 1 mps 725 mmHg 54%
    14:00 +18°C° 0.5 mm 1 mps 724 mmHg 56%
    15:00 +16°C° 0.5 mm 2 mps 724 mmHg 58%
    16:00 +15°C° 0.5 mm 2 mps 723 mmHg 61%
    17:00 +13°C° 0.1 mm 2 mps 723 mmHg 65%
    18:00 +12°C° 0.1 mm 2 mps 723 mmHg 70%
    19:00 +10°C° 0.1 mm 1 mps 724 mmHg 75%
    20:00 +8°C° 0 mm 2 mps 724 mmHg 76%
    21:00 +8°C° 0 mm 2 mps 724 mmHg 77%
    22:00 +7°C° 0 mm 2 mps 724 mmHg 78%
    23:00 +6°C° 0 mm 2 mps 725 mmHg 77%
    Show more